Temperature
28 28 28 28 28 28 28 29 29 29 29 29 29 28 26 24 23 22 21 21 20 20 19 18 18 18 18 18 18 17 17 17 17 17 17 17 16 16 16 16 16 16 16 16
26 27 28 28 28 28 28 29 29 29 29 29 28 26 25 24 23 22 21 20 20 19 19 18 18 18 18 18 17 17 17 17 17 17 16 16 16 16 16 16 16 15 15 15
26 27 27 26 28 28 28 29 29 29 29 28 27 26 24 23 22 22 21 20 19 19 18 18 18 18 18 18 17 17 17 16 16 16 16 16 15 15 15 15 15 15 15 15
26 25 25 27 28 29 28 28 29 28 28 27 26 24 23 22 22 21 20 20 19 19 18 18 18 17 17 17 17 16 16 16 16 16 15 15 15 15 15 15 15 15 15 15
26 26 26 26 27 27 27 27 28 28 27 26 24 23 22 21 21 20 20 19 19 18 18 17 17 17 17 17 16 16 16 16 15 15 15 15 14 14 14 14 14 14 14 14
25 25 25 27 27 26 27 27 27 27 26 25 24 26 24 20 20 19 19 18 18 18 17 17 17 17 17 16 16 16 16 15 15 15 14 14 14 14 14 14 14 13 13 13
25 25 26 26 25 25 26 26 25 25 24 24 25 25 22 20 19 18 17 17 17 17 17 17 17 17 16 16 16 15 15 15 15 14 14 14 14 14 13 13 13 13 13 13
25 25 25 24 25 26 25 23 23 23 23 22 21 20 19 18 18 17 17 17 17 17 16 16 16 16 16 15 15 15 15 15 14 14 14 14 13 13 13 13 13 12 12 12
25 25 22 22 22 21 21 21 21 22 21 20 19 19 18 17 17 16 16 16 16 16 16 16 16 15 15 15 15 15 14 14 14 14 13 13 13 13 12 12 12 12 12 11
22 22 21 20 20 20 20 20 20 20 19 19 19 18 17 16 16 15 15 16 16 16 15 15 15 14 15 14 14 14 14 13 13 13 13 13 12 12 12 12 12 12 11 11
22 21 20 20 19 19 19 19 19 19 19 18 18 17 16 16 15 15 15 15 15 15 15 15 14 14 14 14 14 13 13 13 12 12 12 12 12 11 11 11 11 11 11 11
22 21 21 19 18 18 18 18 18 18 18 17 17 16 16 15 15 15 15 15 15 15 14 14 13 13 13 13 13 13 12 12 12 11 11 11 11 11 11 11 10 10 10 10
19 19 18 17 17 18 17 17 17 17 17 16 16 15 15 15 14 14 14 14 14 14 13 13 13 13 13 13 12 12 12 12 11 11 11 11 10 10 10 10 10 10 10 9
17 17 17 17 17 17 16 16 16 16 16 15 15 15 15 14 14 14 14 14 13 13 13 13 12 12 12 12 12 12 11 11 11 11 10 10 10 10 10 9 9 9 9 9
16 16 16 16 16 16 16 16 16 15 15 15 15 14 14 14 14 13 13 13 13 12 12 12 12 12 12 12 11 11 11 11 10 10 10 10 10 10 9 9 9 9 8 8
16 16 16 15 15 15 15 15 15 15 14 14 14 13 13 13 13 13 13 12 12 12 12 11 11 11 11 11 11 11 11 10 10 10 10 10 10 10 9 9 9 9 8 8
15 15 15 15 15 15 15 15 14 14 14 13 13 13 13 12 12 12 12 12 12 12 12 11 11 11 11 11 11 11 10 10 10 10 10 10 10 9 9 9 9 8 8 8
15 15 15 15 15 14 14 14 13 13 13 13 12 12 12 12 12 12 12 11 11 11 11 11 11 10 10 10 10 10 10 10 10 10 10 9 9 9 9 9 8 8 8 7
14 14 14 14 14 14 13 13 13 12 12 12 12 12 12 12 12 11 11 11 11 11 10 10 10 10 10 10 10 10 10 10 9 9 9 9 9 9 9 8 8 8 8 7
13 13 13 13 13 13 12 12 12 12 12 12 12 11 11 11 11 11 11 11 11 10 10 10 10 10 10 10 10 10 10 9 9 9 9 9 9 8 8 8 8 7 7 7
13 13 13 12 12 12 12 12 12 11 11 11 11 11 11 11 10 10 10 10 10 10 10 10 10 9 9 9 9 9 9 9 9 9 9 9 8 8 8 7 7 7 7 6
12 12 12 12 11 11 11 11 11 11 11 11 11 10 10 10 10 10 10 10 10 10 9 9 9 9 9 9 9 9 9 9 9 9 8 8 8 8 8 7 7 7 6 6
11 11 11 11 11 10 10 10 10 10 10 10 10 10 10 10 10 10 9 9 9 9 9 9 9 9 9 9 9 9 9 9 9 9 8 8 8 8 7 7 7 6 6 6
10 10 10 10 10 10 10 10 10 10 10 10 10 10 9 9 9 9 9 9 9 9 9 9 9 9 8 9 9 9 8 8 8 8 8 8 7 7 7 7 7 6 6 6
10 10 10 10 10 10 9 9 9 9 9 9 9 9 9 9 9 9 9 9 9 9 9 9 8 8 8 8 8 8 8 8 8 8 8 8 7 7 7 7 6 6 6 6
9 9 9 9 9 9 9 9 9 9 9 9 9 9 9 9 9 9 9 8 8 8 8 8 8 8 8 8 8 8 8 8 7 7 7 7 7 7 7 6 6 6 6 6
9 9 9 9 9 9 9 9 9 9 9 9 9 8 8 8 8 8 8 8 8 8 8 8 8 8 8 8 8 7 7 7 7 7 7 7 7 7 6 6 6 6 6 6
Wind_Speed
10 7 11 15 17 18 18 16 13 11 10 7 6 6 8 10 11 11 11 11 11 10 9 9 8 7 7 6 6 5 5 5 4 4 3 3 2 1 1 1 2 2 2 1
11 10 11 12 14 16 17 16 15 12 9 4 3 6 9 11 12 12 12 12 11 11 10 9 8 8 7 7 6 6 5 5 5 4 4 3 2 2 1 2 2 2 2 2
11 11 12 15 15 14 14 14 13 13 9 5 5 7 10 12 13 12 13 12 12 11 10 9 8 8 8 7 6 6 5 5 5 5 4 4 3 3 2 3 3 3 3 3
9 10 13 7 7 12 13 11 10 8 5 6 6 6 7 9 12 12 12 12 11 11 10 9 9 9 8 8 7 6 6 5 5 5 5 4 4 4 4 4 4 4 5 5
9 12 10 6 6 9 11 10 9 8 6 6 8 8 7 7 9 11 11 11 11 11 11 10 9 9 9 8 7 7 6 5 5 5 5 5 5 5 5 6 6 6 5 6
9 11 11 7 7 6 7 9 7 8 8 9 10 8 6 9 10 12 11 11 11 11 11 10 9 9 9 8 7 6 6 6 5 5 6 6 6 6 6 7 7 8 8 7
12 10 7 4 5 7 9 4 4 6 8 10 8 2 10 13 12 13 12 12 12 12 10 9 9 9 9 8 7 6 6 6 6 6 6 6 6 6 6 7 7 7 8 8
12 12 7 5 5 6 1 3 2 4 6 8 7 11 13 14 14 14 13 13 12 11 10 9 9 9 9 8 7 7 7 7 7 6 6 6 7 6 6 7 7 7 7 8
5 3 4 2 1 2 3 1 1 3 6 10 11 12 13 13 13 13 13 12 11 12 11 9 8 8 10 9 8 8 8 8 7 7 7 6 6 6 6 5 5 5 6 6
2 2 1 1 1 1 1 1 2 5 9 11 12 13 13 12 12 12 12 11 11 12 11 10 9 8 9 9 9 9 9 8 7 8 8 8 6 5 5 4 5 5 5 6
5 3 1 2 2 2 3 4 6 8 9 11 13 13 13 12 12 11 11 10 11 11 11 10 9 9 9 9 9 9 9 8 8 8 9 9 9 9 7 8 6 5 5 5
4 3 1 2 2 3 5 6 8 9 11 11 12 13 13 12 11 11 11 11 11 11 11 10 10 9 9 8 8 9 8 8 7 7 8 8 9 10 16 13 14 15 13 9
2 1 2 2 3 4 6 7 8 10 11 12 12 13 13 12 12 12 12 11 11 11 11 10 10 9 8 8 8 8 8 7 7 7 7 7 8 8 8 9 13 15 13 12
2 3 3 4 4 5 7 8 9 10 11 11 12 12 12 12 12 13 12 11 11 11 11 10 10 9 8 8 8 9 9 8 7 7 7 7 7 7 7 7 7 7 9 10
2 2 4 5 6 6 7 9 10 10 11 11 11 11 12 12 12 12 11 11 11 11 10 10 10 9 8 8 9 9 8 7 7 7 7 7 7 7 7 7 7 7 7 7
3 4 6 7 7 7 8 9 9 10 10 11 11 11 11 12 12 11 11 10 11 11 10 10 10 9 8 9 9 8 7 8 7 7 7 7 6 6 6 6 6 6 6 6
5 5 7 7 7 7 7 7 8 9 10 10 11 11 11 12 12 11 11 10 10 10 10 9 9 9 8 9 9 8 8 8 8 7 7 7 6 6 6 6 6 6 6 5
4 4 5 6 6 7 7 8 9 10 10 11 11 11 11 11 11 11 11 11 10 10 9 8 9 9 9 8 8 8 8 8 7 6 7 6 6 6 6 6 6 7 6 6
3 4 5 7 7 7 8 8 9 10 11 11 12 11 11 10 11 11 11 11 11 9 8 8 9 9 9 8 7 7 8 8 7 7 7 7 6 6 6 6 5 5 5 5
4 6 7 9 9 9 9 9 9 10 10 11 12 12 11 11 11 11 11 9 7 7 8 9 9 9 9 8 5 7 7 7 8 7 7 6 6 6 5 5 5 5 4 4
5 7 9 9 10 9 10 10 10 10 11 11 12 12 11 11 10 10 10 9 8 8 10 9 8 7 7 6 4 6 7 7 7 6 6 6 6 6 5 5 5 4 4 3
6 7 9 10 11 10 9 10 11 11 11 11 11 12 12 11 11 10 9 7 8 8 8 8 7 7 6 5 6 6 7 7 6 6 6 6 6 5 5 5 4 4 3 3
6 8 10 11 11 11 11 10 11 10 10 11 11 11 11 10 8 8 8 7 8 8 7 7 8 8 5 5 6 7 7 6 6 6 6 5 5 5 5 4 4 3 3 3
9 10 11 11 12 12 12 11 10 10 10 10 10 10 10 9 8 7 8 10 9 9 8 9 10 6 5 5 6 6 6 6 5 5 5 5 5 4 4 4 3 3 3 3
11 11 12 12 11 10 11 11 12 11 11 9 11 10 8 7 8 8 9 10 11 9 9 10 8 6 5 5 6 6 5 5 4 4 4 4 4 4 3 3 2 2 2 2
10 9 9 9 9 9 9 9 9 9 9 10 9 8 8 8 9 9 8 10 11 9 8 8 7 6 5 6 6 5 5 5 5 3 3 3 3 3 3 2 2 1 1 1
11 10 9 9 8 8 8 9 9 9 9 10 10 9 8 8 9 9 10 9 9 8 8 7 6 6 5 6 6 5 5 4 4 3 3 3 3 2 2 2 2 2 1 1
Wind_Direction
234 217 198 206 209 210 221 231 236 230 235 232 210 192 172 163 157 154 154 153 150 145 139 138 134 131 129 126 125 124 120 114 108 103 94 88 85 100 135 150 165 166 153 156
215 216 216 217 213 212 219 228 237 243 239 223 173 160 166 166 164 160 158 155 151 145 141 142 139 134 129 126 124 121 115 111 106 100 91 83 80 87 107 117 122 122 117 115
209 202 211 220 216 214 216 223 232 236 235 197 182 175 175 173 171 165 160 156 154 149 144 142 140 137 132 126 123 116 111 107 107 105 94 84 89 95 113 118 111 103 96 95
205 194 215 210 208 218 219 221 227 237 228 211 194 169 165 173 172 166 159 155 152 148 144 142 139 135 130 124 121 117 112 107 103 102 97 90 93 100 100 100 99 90 84 83
211 209 210 190 194 204 210 219 218 220 204 173 147 147 149 161 165 159 153 149 146 143 139 134 134 132 128 122 118 116 110 104 100 101 100 96 90 88 90 91 89 88 85 82
216 221 217 191 169 188 209 220 204 203 192 174 171 195 166 152 148 143 139 139 137 134 130 130 132 132 128 124 119 113 109 105 99 98 99 97 93 90 91 92 91 88 79 75
217 222 218 125 149 176 211 204 161 187 187 181 188 170 131 138 137 136 134 133 132 128 127 129 132 131 127 124 118 114 110 108 102 98 99 98 92 90 94 96 93 88 84 75
217 224 211 120 175 199 29 48 141 171 175 165 133 117 126 131 132 134 133 131 129 124 120 123 129 130 124 118 115 113 109 106 102 99 98 97 96 93 94 100 102 99 94 86
218 214 76 84 25 6 357 19 119 150 148 142 137 132 130 129 130 132 130 128 127 124 120 117 119 125 123 118 119 117 112 108 104 100 95 96 98 102 106 107 105 104 101 95
208 167 75 18 17 357 2 95 126 136 140 142 138 134 133 130 129 129 127 127 128 126 121 116 115 113 114 119 122 120 115 110 108 105 97 86 77 77 81 83 92 97 95 95
217 213 191 115 66 64 91 109 120 127 134 137 134 134 133 130 129 127 124 124 123 121 119 116 115 112 113 118 122 119 114 112 110 104 98 88 73 53 60 55 44 62 83 89
220 177 197 124 79 100 110 115 121 124 124 128 131 132 130 126 126 127 125 124 122 120 119 119 117 114 115 117 120 122 120 119 117 114 111 108 101 82 55 58 57 53 49 64
268 126 102 130 119 113 112 113 117 121 125 126 126 128 128 128 129 128 126 125 125 124 124 124 122 119 120 122 122 120 120 120 118 117 118 116 115 113 104 80 69 63 60 67
162 153 153 147 121 112 112 113 115 117 121 124 126 126 126 128 130 129 128 129 128 127 126 125 122 120 122 122 122 121 119 114 118 118 118 118 117 117 118 118 110 93 77 77
188 183 158 134 126 121 122 125 125 124 125 123 126 128 130 131 131 128 127 128 127 125 123 122 119 117 121 123 122 120 119 121 117 117 119 117 116 117 115 114 113 113 112 103
149 136 144 143 136 134 136 136 133 132 133 131 131 131 131 130 129 127 127 129 131 127 124 122 120 122 124 122 120 116 110 105 115 120 119 118 117 116 116 118 117 114 113 115
173 164 160 153 142 138 135 133 134 135 135 133 131 131 131 128 127 127 127 126 123 121 123 124 123 126 127 127 127 123 121 121 124 120 116 117 117 114 113 115 113 108 100 84
192 183 174 156 146 139 132 130 133 135 135 134 134 134 134 133 132 129 127 123 118 114 114 121 125 128 128 127 126 124 124 125 124 119 119 116 116 117 116 114 114 112 111 113
165 155 149 144 143 139 134 132 133 132 133 136 135 132 129 127 129 130 129 128 127 123 122 123 126 131 127 122 122 126 124 123 121 118 117 119 125 118 117 116 116 115 115 118
143 143 143 139 138 137 134 133 132 132 133 133 131 128 126 126 128 129 126 120 116 120 128 130 133 127 126 124 132 129 125 125 123 123 125 129 122 119 118 117 117 116 114 113
138 140 139 136 132 130 132 134 134 132 132 133 132 130 127 126 129 130 128 119 113 117 124 126 126 123 124 126 149 129 129 130 128 128 128 125 122 122 121 120 119 119 120 118
138 134 133 131 128 125 126 127 128 126 127 128 128 128 128 129 128 122 115 117 124 125 130 127 124 115 123 143 139 131 130 130 131 129 127 128 129 127 125 127 128 125 124 127
134 132 130 127 125 123 120 121 124 125 126 128 129 131 131 129 130 129 123 122 129 129 128 120 113 117 151 156 130 127 127 129 130 129 129 129 129 130 130 133 133 138 142 142
124 121 120 122 123 122 121 120 119 119 121 121 123 126 127 125 121 117 117 120 117 125 121 112 117 135 183 138 123 124 127 128 129 129 131 134 134 132 130 136 142 147 151 160
117 117 120 124 123 121 120 121 120 120 119 116 117 118 119 120 122 121 122 125 127 130 123 122 133 149 148 125 124 123 122 116 115 125 129 130 131 129 130 138 145 151 163 169
114 117 116 115 114 120 125 125 124 123 120 117 117 117 116 117 120 121 124 128 130 131 128 130 136 151 138 127 123 121 119 120 123 124 116 127 131 129 127 132 138 149 158 158
110 111 112 111 112 116 121 124 125 124 123 123 121 120 120 122 122 125 127 130 132 131 128 131 135 138 137 134 133 133 133 134 134 130 134 139 137 139 144 155 158 161 177 173
Height
1467 1465 1467 1472 1475 1477 1479 1478 1482 1480 1479 1477 1479 1484 1489 1494 1498 1501 1505 1508 1510 1513 1515 1517 1519 1521 1523 1524 1526 1527 1528 1528 1528 1529 1529 1529 1530 1530 1530 1531 1531 1532 1533 1533
1473 1469 1469 1471 1470 1472 1475 1475 1475 1475 1476 1475 1480 1485 1490 1493 1497 1500 1504 1507 1510 1512 1515 1517 1519 1521 1522 1524 1525 1526 1527 1528 1528 1528 1528 1529 1529 1529 1529 1530 1530 1531 1532 1532
1473 1469 1472 1477 1469 1469 1471 1470 1471 1475 1474 1476 1481 1485 1489 1492 1495 1499 1502 1505 1509 1511 1514 1516 1519 1520 1522 1524 1525 1526 1527 1528 1528 1528 1528 1528 1528 1528 1529 1529 1530 1531 1531 1531
1468 1476 1487 1467 1461 1462 1466 1468 1468 1470 1472 1476 1480 1485 1489 1492 1495 1498 1501 1505 1508 1511 1513 1516 1518 1520 1522 1524 1525 1526 1527 1528 1528 1528 1528 1528 1528 1529 1529 1529 1530 1530 1531 1531
1468 1474 1471 1466 1463 1463 1467 1469 1467 1470 1473 1477 1481 1485 1489 1492 1494 1498 1501 1504 1507 1510 1512 1515 1517 1520 1522 1524 1525 1526 1526 1527 1528 1529 1529 1529 1529 1529 1529 1530 1530 1531 1531 1530
1468 1472 1475 1463 1460 1463 1466 1470 1467 1469 1472 1476 1479 1479 1485 1490 1493 1497 1500 1503 1506 1509 1512 1514 1517 1519 1521 1523 1524 1525 1526 1527 1528 1529 1529 1529 1530 1530 1530 1531 1531 1531 1531 1531
1466 1468 1460 1458 1462 1465 1473 1469 1467 1469 1472 1475 1477 1477 1484 1489 1493 1497 1500 1503 1506 1509 1511 1514 1516 1518 1520 1522 1524 1525 1526 1527 1528 1529 1529 1530 1530 1531 1532 1532 1532 1532 1532 1532
1463 1467 1466 1462 1463 1463 1466 1468 1468 1470 1473 1476 1479 1482 1485 1489 1493 1496 1500 1503 1506 1508 1511 1513 1515 1518 1520 1522 1523 1524 1526 1527 1528 1529 1530 1531 1531 1532 1532 1533 1533 1534 1534 1534
1457 1461 1465 1465 1466 1468 1469 1470 1470 1471 1474 1476 1480 1483 1487 1491 1494 1497 1500 1503 1506 1508 1511 1513 1515 1518 1520 1521 1523 1524 1526 1527 1528 1529 1530 1531 1532 1533 1534 1534 1535 1535 1536 1535
1462 1462 1466 1468 1469 1469 1470 1471 1471 1473 1475 1477 1480 1484 1488 1492 1495 1499 1501 1504 1506 1509 1511 1513 1516 1518 1519 1521 1523 1524 1526 1527 1528 1530 1531 1532 1533 1534 1535 1536 1536 1537 1537 1537
1462 1465 1467 1468 1470 1470 1471 1471 1473 1475 1477 1479 1482 1485 1489 1492 1496 1499 1502 1505 1507 1509 1511 1514 1516 1518 1520 1521 1523 1525 1526 1527 1529 1530 1531 1532 1533 1534 1535 1535 1536 1537 1538 1538
1460 1465 1466 1469 1471 1472 1472 1473 1474 1476 1479 1481 1483 1486 1490 1493 1497 1500 1503 1506 1508 1510 1512 1515 1516 1518 1520 1522 1524 1525 1527 1528 1530 1531 1532 1533 1534 1534 1535 1536 1537 1537 1538 1538
1466 1467 1469 1470 1472 1473 1474 1475 1476 1478 1480 1483 1486 1488 1491 1494 1498 1501 1504 1507 1509 1511 1513 1515 1517 1519 1520 1522 1524 1526 1528 1529 1531 1532 1534 1535 1536 1536 1537 1538 1538 1539 1539 1540
1467 1469 1470 1471 1473 1474 1475 1476 1478 1480 1483 1485 1488 1491 1493 1496 1499 1502 1504 1507 1510 1512 1514 1516 1518 1519 1521 1523 1525 1527 1528 1530 1531 1533 1534 1536 1537 1538 1539 1540 1540 1540 1541 1541
1468 1469 1470 1472 1473 1475 1476 1478 1480 1482 1485 1487 1490 1492 1495 1497 1500 1503 1505 1508 1511 1513 1515 1517 1519 1520 1522 1524 1525 1527 1529 1531 1533 1534 1535 1537 1538 1540 1541 1542 1542 1543 1543 1544
1468 1469 1470 1472 1474 1476 1478 1479 1481 1483 1486 1488 1491 1494 1496 1499 1501 1504 1506 1509 1511 1513 1515 1517 1519 1521 1523 1525 1527 1528 1530 1532 1533 1535 1537 1538 1540 1541 1542 1543 1544 1545 1545 1546
1467 1469 1471 1473 1474 1477 1479 1480 1482 1484 1487 1489 1492 1494 1497 1499 1502 1505 1507 1510 1512 1514 1516 1518 1520 1522 1524 1526 1528 1530 1531 1533 1535 1537 1538 1539 1541 1542 1543 1544 1545 1546 1546 1546
1467 1469 1471 1473 1475 1477 1479 1481 1483 1485 1487 1490 1492 1495 1498 1500 1503 1505 1508 1511 1513 1515 1517 1519 1521 1523 1525 1527 1530 1532 1533 1535 1536 1538 1539 1540 1541 1543 1544 1545 1546 1546 1547 1547
1466 1468 1470 1473 1475 1477 1479 1481 1484 1486 1488 1491 1493 1496 1498 1501 1504 1506 1509 1512 1514 1516 1518 1520 1522 1525 1527 1529 1531 1533 1535 1536 1537 1539 1540 1541 1543 1544 1545 1546 1547 1547 1548 1549
1466 1468 1470 1472 1475 1477 1479 1482 1484 1487 1489 1491 1494 1497 1499 1502 1505 1507 1510 1513 1515 1517 1519 1521 1524 1526 1528 1530 1532 1534 1536 1537 1539 1540 1541 1543 1544 1545 1546 1547 1547 1548 1549 1550
1466 1468 1470 1472 1475 1477 1480 1483 1485 1487 1490 1492 1495 1497 1500 1503 1506 1509 1511 1514 1516 1519 1521 1523 1525 1527 1529 1531 1533 1536 1537 1539 1540 1541 1542 1544 1545 1546 1547 1548 1548 1549 1550 1550
1466 1468 1470 1473 1475 1478 1481 1483 1486 1488 1491 1494 1496 1499 1502 1504 1507 1510 1513 1516 1518 1520 1523 1525 1527 1528 1530 1532 1535 1537 1538 1540 1541 1542 1543 1545 1546 1547 1548 1548 1549 1550 1550 1551
1466 1469 1471 1473 1476 1478 1482 1484 1487 1489 1492 1495 1498 1501 1503 1506 1509 1512 1514 1517 1520 1522 1525 1527 1528 1530 1532 1535 1537 1538 1540 1541 1543 1544 1545 1546 1547 1548 1548 1549 1549 1550 1550 1551
1467 1470 1472 1475 1478 1480 1483 1486 1489 1492 1494 1497 1500 1503 1505 1508 1511 1514 1516 1519 1521 1524 1526 1528 1530 1532 1534 1537 1538 1540 1541 1543 1544 1545 1546 1547 1547 1548 1549 1549 1550 1550 1551 1551
1469 1472 1474 1477 1480 1483 1485 1488 1491 1494 1497 1499 1502 1505 1508 1511 1513 1516 1518 1521 1523 1526 1528 1530 1532 1534 1536 1538 1540 1541 1542 1543 1545 1546 1547 1547 1548 1549 1549 1550 1550 1550 1550 1551
1472 1474 1477 1480 1482 1485 1488 1491 1493 1496 1499 1502 1505 1508 1511 1513 1516 1518 1520 1523 1525 1527 1530 1532 1533 1535 1538 1539 1541 1542 1543 1544 1545 1546 1547 1548 1548 1549 1549 1549 1550 1550 1550 1550
1475 1477 1480 1483 1486 1489 1491 1494 1497 1499 1502 1504 1507 1510 1513 1516 1518 1521 1523 1525 1527 1529 1531 1533 1535 1537 1539 1540 1542 1543 1544 1545 1546 1546 1547 1547 1548 1548 1549 1549 1549 1549 1549 1549